| time (UTC) | temp F | wind direction | speed MPH | gust MPH | rain 1hr in | rain 24hr in | rain mn in | humidity % | barometer mb |
| 20260510220024 | 72 | 77 | 0.0 | 5.0 | 0.00 | 0.06 | 0.00 | 62 | 1014.5 |
| 20260510214521 | 73 | 281 | 1.0 | 3.0 | 0.00 | 0.06 | 0.00 | 64 | 1014.3 |
| 20260510213018 | 73 | 316 | 1.0 | 7.0 | 0.00 | 0.06 | 0.00 | 62 | 1014.0 |
| 20260510211516 | 74 | 27 | 2.0 | 6.0 | 0.00 | 0.06 | 0.00 | 64 | 1013.9 |
| 20260510210014 | 73 | 49 | 1.0 | 4.0 | 0.00 | 0.06 | 0.00 | 66 | 1013.7 |
| 20260510204515 | 74 | 246 | 0.0 | 6.0 | 0.00 | 0.06 | 0.00 | 64 | 1013.7 |
| 20260510203008 | 73 | 177 | 2.0 | 6.0 | 0.00 | 0.06 | 0.00 | 65 | 1013.7 |
| 20260510201505 | 72 | 346 | 1.0 | 6.0 | 0.00 | 0.06 | 0.00 | 69 | 1013.8 |
| 20260510200003 | 73 | 300 | 0.0 | 4.0 | 0.01 | 0.06 | 0.00 | 73 | 1013.9 |
| 20260510194532 | 73 | 333 | 0.0 | 2.0 | 0.06 | 0.06 | 0.06 | 76 | 1013.9 |
| 20260510193032 | 72 | 293 | 1.0 | 3.0 | 0.06 | 0.06 | 0.06 | 82 | 1014.0 |
| 20260510191527 | 72 | 208 | 1.0 | 3.0 | 0.06 | 0.06 | 0.06 | 78 | 1014.1 |
| 20260510190026 | 72 | 279 | 2.0 | 7.0 | 0.05 | 0.05 | 0.05 | 78 | 1014.2 |
| 20260510184522 | 75 | 271 | 3.0 | 6.0 | 0.00 | 0.00 | 0.00 | 67 | 1014.6 |
| 20260510183021 | 76 | 280 | 3.0 | 7.0 | 0.00 | 0.00 | 0.00 | 57 | 1014.2 |
| 20260510181529 | 76 | 269 | 2.0 | 10.0 | 0.00 | 0.00 | 0.00 | 53 | 1014.1 |
| 20260510180017 | 77 | 344 | 2.0 | 12.0 | 0.00 | 0.00 | 0.00 | 53 | 1014.0 |
| 20260510174516 | 78 | 224 | 2.0 | 9.0 | 0.00 | 0.00 | 0.00 | 52 | 1014.1 |
| 20260510173016 | 78 | 267 | 3.0 | 10.0 | 0.00 | 0.00 | 0.00 | 51 | 1014.0 |
| 20260510171513 | 78 | 281 | 6.0 | 9.0 | 0.00 | 0.00 | 0.00 | 52 | 1014.1 |
| 20260510170009 | 77 | 271 | 7.0 | 11.0 | 0.00 | 0.00 | 0.00 | 54 | 1014.1 |
| 20260510164514 | 75 | 238 | 2.0 | 4.0 | 0.00 | 0.00 | 0.00 | 58 | 1014.1 |
| 20260510163008 | 74 | 290 | 1.0 | 8.0 | 0.00 | 0.00 | 0.00 | 59 | 1014.1 |
| 20260510161505 | 75 | 294 | 6.0 | 11.0 | 0.00 | 0.00 | 0.00 | 55 | 1014.3 |
| 20260510160005 | 77 | 257 | 9.0 | 16.0 | 0.00 | 0.00 | 0.00 | 52 | 1014.1 |
| 20260510154502 | 76 | 321 | 3.0 | 12.0 | 0.00 | 0.00 | 0.00 | 55 | 1014.0 |
| 20260510153059 | 75 | 260 | 3.0 | 8.0 | 0.00 | 0.00 | 0.00 | 55 | 1014.1 |
| 20260510151603 | 75 | 282 | 4.0 | 13.0 | 0.00 | 0.00 | 0.00 | 54 | 1014.1 |
| 20260510150104 | 76 | 234 | 8.0 | 13.0 | 0.00 | 0.00 | 0.00 | 53 | 1014.1 |
| 20260510144604 | 74 | 237 | 4.0 | 11.0 | 0.00 | 0.00 | 0.00 | 55 | 1013.9 |
| 20260510143059 | 74 | 265 | 7.0 | 12.0 | 0.00 | 0.00 | 0.00 | 56 | 1013.8 |
| 20260510141549 | 72 | 270 | 7.0 | 12.0 | 0.00 | 0.00 | 0.00 | 59 | 1014.2 |
| 20260510140048 | 72 | 263 | 4.0 | 10.0 | 0.00 | 0.00 | 0.00 | 60 | 1014.0 |
| 20260510134547 | 70 | 222 | 2.0 | 6.0 | 0.00 | 0.00 | 0.00 | 63 | 1014.0 |
| 20260510133045 | 69 | 192 | 1.0 | 8.0 | 0.00 | 0.00 | 0.00 | 67 | 1014.1 |
| 20260510131532 | 66 | 270 | 2.0 | 4.0 | 0.00 | 0.00 | 0.00 | 74 | 1014.1 |
| 20260510130013 | 65 | 273 | 0.0 | 9.0 | 0.00 | 0.00 | 0.00 | 73 | 1014.0 |
| 20260510124610 | 62 | 298 | 0.0 | 2.0 | 0.00 | 0.00 | 0.00 | 84 | 1014.0 |
| 20260510123009 | 59 | 47 | 1.0 | 3.0 | 0.00 | 0.00 | 0.00 | 87 | 1013.9 |
| 20260510121505 | 57 | 46 | 0.0 | 3.0 | 0.00 | 0.00 | 0.00 | 88 | 1013.6 |
| 20260510120005 | 55 | 63 | 0.0 | 1.0 | 0.00 | 0.00 | 0.00 | 90 | 1013.7 |
| 20260510114504 | 53 | 63 | 0.0 | 2.0 | 0.00 | 0.00 | 0.00 | 91 | 1013.6 |
| 20260510113115 | 52 | 350 | 0.0 | 1.0 | 0.00 | 0.00 | 0.00 | 91 | 1013.3 |
| 20260510111559 | 50 | 284 | 0.0 | 1.0 | 0.00 | 0.00 | 0.00 | 91 | 1013.3 |
| 20260510110058 | 50 | 284 | 0.0 | 1.0 | 0.00 | 0.00 | 0.00 | 91 | 1012.8 |
| 20260510104554 | 50 | 284 | 0.0 | 0.0 | 0.00 | 0.00 | 0.00 | 91 | 1012.7 |
| 20260510103053 | 49 | 284 | 0.0 | 1.0 | 0.00 | 0.00 | 0.00 | 91 | 1012.6 |
| 20260510101556 | 49 | 284 | 0.0 | 1.0 | 0.00 | 0.00 | 0.00 | 91 | 1012.3 |
| 20260510100051 | 50 | 284 | 0.0 | 1.0 | 0.00 | 0.00 | 0.00 | 90 | 1012.4 |
| 20260510094550 | 50 | 284 | 0.0 | 1.0 | 0.00 | 0.00 | 0.00 | 90 | 1012.2 |
| 20260510093045 | 50 | 284 | 0.0 | 2.0 | 0.00 | 0.00 | 0.00 | 90 | 1011.8 |
| 20260510091544 | 50 | 284 | 0.0 | 1.0 | 0.00 | 0.00 | 0.00 | 90 | 1011.8 |
| 20260510090040 | 50 | 284 | 0.0 | 1.0 | 0.00 | 0.00 | 0.00 | 90 | 1011.7 |
| 20260510084541 | 51 | 284 | 0.0 | 2.0 | 0.00 | 0.00 | 0.00 | 90 | 1011.6 |
| 20260510083035 | 51 | 284 | 0.0 | 2.0 | 0.00 | 0.00 | 0.00 | 90 | 1011.3 |
| 20260510081533 | 51 | 227 | 0.0 | 2.0 | 0.00 | 0.00 | 0.00 | 90 | 1011.2 |
| 20260510080034 | 51 | 200 | 0.0 | 1.0 | 0.00 | 0.00 | 0.00 | 90 | 1011.2 |
| 20260510074532 | 51 | 198 | 0.0 | 1.0 | 0.00 | 0.00 | 0.00 | 90 | 1011.0 |
| 20260510073011 | 51 | 198 | 0.0 | 1.0 | 0.00 | 0.00 | 0.00 | 90 | 1010.9 |
| 20260510071509 | 52 | 141 | 0.0 | 1.0 | 0.00 | 0.00 | 0.00 | 90 | 1010.9 |
| 20260510070009 | 52 | 127 | 0.0 | 3.0 | 0.00 | 0.00 | 0.00 | 90 | 1010.9 |
| 20260510064520 | 52 | 290 | 0.0 | 3.0 | 0.00 | 0.00 | 0.00 | 90 | 1010.9 |
| 20260510063003 | 52 | 255 | 0.0 | 1.0 | 0.00 | 0.00 | 0.00 | 89 | 1011.0 |
| 20260510061501 | 53 | 279 | 0.0 | 2.0 | 0.00 | 0.00 | 0.00 | 89 | 1011.1 |
| 20260510060059 | 53 | 279 | 0.0 | 2.0 | 0.00 | 0.00 | 0.00 | 88 | 1011.0 |
| 20260510054604 | 53 | 279 | 0.0 | 1.0 | 0.00 | 0.00 | 0.00 | 88 | 1011.1 |
| 20260510053055 | 54 | 279 | 0.0 | 1.0 | 0.00 | 0.00 | 0.00 | 88 | 1011.1 |
| 20260510051557 | 54 | 279 | 0.0 | 1.0 | 0.00 | 0.00 | 0.00 | 88 | 1011.2 |
| 20260510050052 | 54 | 279 | 0.0 | 1.0 | 0.00 | 0.00 | 0.00 | 87 | 1011.2 |
| 20260510044550 | 55 | 279 | 0.0 | 1.0 | 0.00 | 0.00 | 0.00 | 87 | 1011.4 |
| 20260510043046 | 55 | 279 | 0.0 | 1.0 | 0.00 | 0.00 | 0.00 | 86 | 1011.5 |
| 20260510041544 | 56 | 279 | 0.0 | 0.0 | 0.00 | 0.00 | 0.00 | 86 | 1011.5 |
| 20260510040046 | 56 | 279 | 0.0 | 1.0 | 0.00 | 0.00 | 0.00 | 86 | 1011.5 |
| 20260510034551 | 57 | 279 | 0.0 | 1.0 | 0.00 | 0.00 | 0.00 | 85 | 1011.5 |
| 20260510033037 | 57 | 279 | 0.0 | 1.0 | 0.00 | 0.00 | 0.00 | 84 | 1011.4 |
| 20260510031534 | 58 | 279 | 0.0 | 1.0 | 0.00 | 0.00 | 0.00 | 84 | 1011.3 |
| 20260510030030 | 59 | 279 | 0.0 | 1.0 | 0.00 | 0.00 | 0.00 | 83 | 1011.3 |
| 20260510024527 | 59 | 279 | 0.0 | 1.0 | 0.00 | 0.00 | 0.00 | 81 | 1011.1 |
| 20260510023023 | 60 | 277 | 0.0 | 2.0 | 0.00 | 0.00 | 0.00 | 80 | 1010.9 |
| 20260510021525 | 61 | 277 | 0.0 | 2.0 | 0.00 | 0.00 | 0.00 | 78 | 1010.6 |
| 20260510020019 | 62 | 250 | 1.0 | 2.0 | 0.00 | 0.00 | 0.00 | 76 | 1010.4 |
| 20260510014513 | 63 | 250 | 0.0 | 1.0 | 0.00 | 0.00 | 0.00 | 74 | 1010.2 |
| 20260510013004 | 64 | 251 | 0.0 | 2.0 | 0.00 | 0.00 | 0.00 | 72 | 1010.0 |
| 20260510011600 | 65 | 250 | 0.0 | 2.0 | 0.00 | 0.00 | 0.00 | 70 | 1009.7 |
| 20260510010056 | 66 | 251 | 0.0 | 1.0 | 0.00 | 0.00 | 0.00 | 67 | 1009.6 |
| 20260510004552 | 67 | 251 | 0.0 | 2.0 | 0.00 | 0.00 | 0.00 | 66 | 1009.4 |
| 20260510003102 | 68 | 253 | 1.0 | 7.0 | 0.00 | 0.00 | 0.00 | 64 | 1009.1 |
| 20260510001545 | 69 | 230 | 1.0 | 5.0 | 0.00 | 0.00 | 0.00 | 63 | 1008.9 |
| 20260510000043 | 69 | 240 | 3.0 | 10.0 | 0.00 | 0.00 | 0.00 | 62 | 1008.8 |
| 20260509234539 | 70 | 230 | 4.0 | 9.0 | 0.00 | 0.00 | 0.00 | 60 | 1008.8 |
| 20260509233029 | 71 | 246 | 3.0 | 9.0 | 0.00 | 0.00 | 0.00 | 59 | 1008.6 |
| 20260509231528 | 71 | 246 | 3.0 | 10.0 | 0.00 | 0.00 | 0.00 | 57 | 1008.7 |
| 20260509230025 | 72 | 230 | 3.0 | 10.0 | 0.00 | 0.00 | 0.00 | 57 | 1008.6 |
| 20260509224524 | 72 | 277 | 4.0 | 9.0 | 0.00 | 0.00 | 0.00 | 56 | 1008.6 |
| 20260509223020 | 73 | 227 | 4.0 | 9.0 | 0.00 | 0.00 | 0.00 | 56 | 1008.6 |
| 20260509221518 | 72 | 242 | 7.0 | 11.0 | 0.00 | 0.00 | 0.00 | 56 | 1008.5 |